Tracking 35055 objects as of 18-Aug-2026
HD Live streaming from Space Station
objects crossing your sky now

SL-4 R/B


SL-4 R/B is no longer on orbit


NORAD ID: 11122
Int'l Code: 1978-108B
Launch date: November 28, 1978
Source: Commonwealth of Independent States (former USSR) (CIS)
Launch site: PLESETSK MISSILE AND SPACE COMPLEX (PKMTR)
Decay date: 1978-12-08

Note: This is a ROCKET BODY
Your satellite tracking list
Your tracking list is empty




NASA's NSSDC Master Catalog

Two Line Element Set (TLE):
1 11122U 78108  B 78342.39199559  .02770753 +00000-0 +00000-0 0  9996
2 11122 062.7832 223.4673 0000000 136.5327 234.7861 16.39047241001572
Source of the keplerian elements: AFSPC